Showing default

VELOX 1, 40057

Orbit data source: Space-Track

VELOX 1, 40057 is a payload satellite owned by NTU (SG) in SSO that was launched on Mon, 30 Jun 2014 UTC via a PSLV launch vehicle from the Sirharikota (SRI). Payloads include a variety of satellites, spacecraft, and rockets equipped with specific instruments for various scientific and technological missions. These include communications satellites like Starlink; space stations such as the ISS; scientific satellites like the Hubble; Earth observation satellites from companies like Planet Labs, Umbra, and HawkEye 360; GPS; miniature CubeSats for education and research; and military/defense satellites.

Loading next visibility...
VELOX 1 details
Identifier
40057, 2014-034E
Orbit
SSO
Last TLE update8 hours ago
Origin
Flag of SGNTU (SG / SING)
ManufacturerNTU
MissionNon-operational Amateur Technology
Bus & MotorCUBESAT 3U, Unknown motor
Mass4.25 kg wet, 4.25 kg dry
Launch date (UTC)
2014-06-30 (10 years ago)
Launch vehicle
PSLV
Launch site
Sirharikota (SRI)
Object type
Payload
Rocket body
Debris
Shape & HBRBox + 4 Pan, 0.34 m
Radar Cross Section0.092 m², Medium (>0.1 m² and < 1m²)

Expand to show TLE details & history

TLE from 8 hours ago
0 VELOX 1
1 40057U 14034E   24361.24316576  .00011137  00000-0  11550-2 0  9995
2 40057  98.3154 225.9656 0007151 236.7319 123.3213 14.90151518566263
Epoch: 2024-12-26T05:50Z
Definitive object data (Epoch: 2024-12-26T05:50:09.521Z)
Latitude0.00001°
Longitude43.20057°
Altitude603.229 km
Speed7.556 km/s
True Right ascension15h 03m 51s
True Declination0° 00' 00"
Sunlit
Object was in daylight at TLE epoch
Visualization TLE readout
Latitude-12.63397°
Longitude45.41835°
Altitude604.803 km
Speed7.555 km/s
Apparent Right ascension18h 07m 24s
Apparent Declination-57° 26' 46"
Sunlit
Object is in daylight
Visualization observer readout
Local Sidereal Time13:11:57
Azimuth145.154° SSE
Elevation-25.224°
Doppler factor1
Orbital elements
Apogee altitude599.495 km
Perigee altitude589.523 km
Semi-major axis6,972.646 km
Eccentricity0.0007151
Inclination98.3154°
RAAN225.9656°
Arg. of periapsis236.7319°
True anomaly123.38974°
Mean anomaly123.3213°
Eccentric anomaly123.35552°
Mean motion3.72775 °/min
BSTAR0.001155
Orbital period96.57 mins
Loading maneuver chart data...
Loading historical data...
Loading historical data...
Loading historical data...
Loading historical data...
Loading historical data...
Loading historical data...
Loading historical data...
Other satellites on launch #34 in the year 2014 (2014-06-30 UTC)

VELOX 1 Visibility forecast

Observer location: undefined°, undefined

Span
Click to sort rows by Start time (UTC) header in descending order
Start Az.
Max El. time (UTC)
Max El. Az.
Max El.
End time (UTC)
End Az.
6 mins2024-12-26 15:38:12.703Z195.244° SSW2024-12-26 15:41:12.703Z274.495° WNW34.635°2024-12-26 15:44:12.703Z330.013° NNW
5 mins2024-12-27 03:23:12.703Z57.656° ENE2024-12-27 03:25:12.703Z99.622° ESE23.31°2024-12-27 03:28:12.703Z150.243° SSE
5 mins2024-12-27 04:58:12.703Z336.412° NNW2024-12-27 05:00:12.703Z300.538° NW22.631°2024-12-27 05:03:12.703Z244.009° WSW
|